[[{"header":{"parameterUnit":"m.s-1","parameterCategory":2,"la1":30.2991,"la2":30.254,"lo1":-89.0895,"lo2":-89.0444,"dy":0.0017,"dx":0.0017,"nx":28,"ny":28,"refTime":"2025-08-05T21:00:00:Z","depth":"0","parameterNumber":2,"parameterNumberName":"U-component_of_CURRENTS"},"data":[0,0,0,0,0,0,0,0,0,0,0,0,0,0,0,0,0,0,0,0,0,0,0,0,0,0,0,0,0,0,0,0,0,0,0,0,0,0,0,0,0,0,0,0,0,0,0,0,0,0,0,0,0,0,0,0,0,0,0.114,0.114,0,0.1148,0.1147,0.1147,0.1126,0.1126,0.1125,0.1125,0.1069,0.1068,0.1067,0,0,0,0,0,0,0,0,0,0,0,0,0,0.1106,0.1106,0.114,0.114,0.1141,0.1148,0.1147,0.1147,0.1126,0.1126,0.1125,0.1125,0.1069,0.1068,0.1067,0,0,0,0,0,0,0,0,0,0,0,0,0,0.1115,0.1106,0.114,0.1133,0.1132,0.1148,0.1147,0.1147,0.1126,0.1126,0.1125,0.1124,0.107,0.1068,0.1067,0.107,0,0,0.1062,0.1061,0,0,0,0,0,0,0,0,0.1115,0.1116,0.1133,0.1133,0.1133,0.1137,0.1115,0.1119,0.1127,0.1126,0.1125,0.1124,0.1088,0.1085,0.1085,0.1067,0.1065,0.1062,0.1061,0.106,0.106,0,0,0,0,0,0,0,0.1114,0.1116,0.1141,0.1134,0.1134,0.1129,0.1129,0.1116,0.1108,0.1126,0.1125,0.113,0.1087,0.1087,0.1084,0.1064,0.1062,0.106,0.1059,0.1059,0.109,0.1092,0,0,0,0,0,0,0.1119,0.1115,0.114,0.1141,0.1125,0.113,0.113,0.1135,0.1109,0.1106,0.1131,0.1129,0.109,0.1086,0.1082,0.1126,0.106,0.1058,0.1058,0.1089,0.1091,0.1093,0,0,0,0,0,0,0.1118,0.1121,0.114,0.113,0.1133,0.1131,0.1136,0.1135,0.1141,0.1114,0.1108,0.1138,0.1089,0.1084,0.1089,0.1121,0.1058,0.1056,0.1086,0.1089,0.1092,0.1186,0,0,0,0,0,0,0.1117,0.1121,0.1126,0.1131,0.1133,0.1159,0.1137,0.1136,0.1146,0.1144,0.1119,0.1112,0.1088,0.1092,0.1087,0.1118,0.1055,0.1084,0.1088,0.1091,0.1181,0.1192,0.1201,0,0,0,0,0,0.1116,0.1126,0.1126,0.1129,0.114,0.116,0.1161,0.1156,0.1147,0.1157,0.1147,0.1114,0.111,0.1092,0.1086,0.1117,0.1083,0.1087,0.1091,0.1176,0.119,0.1201,0,0,0,0,0,0,0.1108,0.1125,0.1125,0.1138,0.1154,0.1157,0.1166,0.1165,0.1165,0.1162,0.1132,0.1127,0.1144,0.112,0.1101,0.1138,0.1093,0.1096,0.116,0.1172,0.1182,0.1182,0.1054,0,0,0,0,0,0.1112,0.1125,0.1141,0.1151,0.1162,0.1167,0.1174,0.1175,0.1177,0.1176,0.1163,0.1153,0.1157,0.1155,0.1148,0.1165,0.1171,0.1183,0.1194,0.1203,0.12,0.125,0.1264,0.1106,0.1106,0.1106,0,0,0.1109,0.1123,0.1128,0.1152,0.1161,0.1184,0.1169,0.1188,0.1208,0.1169,0.119,0.1185,0.117,0.1194,0.12,0.1177,0.1258,0.1208,0.1215,0.1208,0.1255,0.1271,0.1284,0.1109,0.1108,0.1108,0,0,0.1117,0.1128,0.1144,0.1164,0.1189,0.1199,0.1209,0.1224,0.1233,0.1255,0.1241,0.1265,0.1252,0.1267,0.1267,0.133,0.1309,0.1322,0.1374,0.1423,0.1436,0.1448,0.1506,0.1522,0.1329,0.1329,0.1329,0,0.1111,0.1136,0.1152,0.1178,0.1195,0.1209,0.1233,0.1252,0.1268,0.1283,0.127,0.1299,0.1293,0.1338,0.1363,0.1355,0.1374,0.1328,0.1437,0.1448,0.1459,0.1515,0.1532,0.1334,0.1334,0.1333,0.1333,0,0.1135,0.1157,0.1172,0.1209,0.1232,0.1256,0.1288,0.1313,0.1325,0.1342,0.1387,0.1395,0.1411,0.1426,0.1411,0.1485,0.1475,0.1445,0.1406,0.1481,0.1536,0.1551,0.1341,0.134,0.1338,0.1337,0,0,0.111,0.1173,0.1177,0.1198,0.125,0.1267,0.1318,0.1362,0.139,0.1425,0.1465,0.1506,0.1512,0.1515,0.1517,0.1565,0.1674,0.1537,0.1537,0.1596,0.1793,0.1877,0.1902,0.1659,0.1662,0.1664,0.1813,0,0.112,0.1167,0.12,0.1244,0.127,0.1308,0.1348,0.1393,0.1429,0.1473,0.1517,0.1549,0.1547,0.1559,0.1615,0.1646,0.1713,0.1636,0.1709,0.1712,0.1779,0.1922,0.1976,0.2121,0.1828,0.183,0.1832,0,0.1129,0.1162,0.1202,0.1259,0.1273,0.1299,0.1362,0.1401,0.1476,0.1503,0.1563,0.1587,0.1675,0.1649,0.1778,0.1726,0.1771,0.1802,0.1808,0.1858,0.1825,0.1993,0.2159,0.2127,0.1855,0.1854,0.1852,0,0.1096,0.116,0.1188,0.1209,0.1277,0.1298,0.1332,0.1403,0.1449,0.1523,0.157,0.1653,0.1711,0.1777,0.1871,0.182,0.2014,0.1946,0.2074,0.208,0.2127,0.2133,0.227,0.2049,0.2048,0.2048,0.2048,0,0.1091,0.1111,0.117,0.1184,0.1213,0.127,0.1308,0.1357,0.1444,0.1512,0.1579,0.1667,0.1745,0.1866,0.1913,0.208,0.2061,0.2125,0.2142,0.2165,0.2173,0.2143,0.2103,0.2054,0.2052,0.2051,0.205,0,0.1046,0.1089,0.1117,0.1179,0.1194,0.121,0.1287,0.1327,0.1416,0.1512,0.1544,0.1705,0.1877,0.1985,0.2119,0.2165,0.2259,0.2337,0.2374,0.2394,0.2457,0.2421,0.2437,0.2333,0.2496,0.2499,0.2502,0,0.1026,0.1038,0.109,0.1101,0.1123,0.1159,0.119,0.1287,0.1349,0.1548,0.1604,0.1812,0.1962,0.2231,0.2372,0.2528,0.2408,0.2643,0.2558,0.2522,0.2491,0.231,0.2203,0.2663,0.2667,0.267,0.2673,0,0.0982,0.0997,0.102,0.1044,0.107,0.1108,0.117,0.1217,0.1357,0.1466,0.1654,0.1797,0.2131,0.2351,0.2594,0.2691,0.2561,0.2713,0.2666,0.2654,0.2474,0.2361,0.2494,0.2701,0.2698,0.2696,0.2694,0.2693,0.0937,0.0933,0.0961,0.098,0.1013,0.1052,0.1065,0.117,0.1271,0.1444,0.1629,0.1844,0.2271,0.2642,0.2707,0.2938,0.2761,0.2929,0.2897,0.272,0.2599,0.2813,0.3034,0.3034,0.3033,0.3032,0.3032,0,0.0865,0.0874,0.0898,0.0917,0.0935,0.0981,0.105,0.1074,0.1168,0.1392,0.1564,0.2039,0.2394,0.2714,0.3126,0.3115,0.2907,0.3087,0.2838,0.272,0.2952,0.2941,0.3164,0.3164,0.3164,0.3164,0.3164,0.3164,0.0826,0.0816,0.0834,0.0836,0.0857,0.086,0.0885,0.0948,0.1082,0.1345,0.1615,0.1871,0.2457,0.3085,0.3321,0.3266,0.2952,0.295,0.2766,0.2971,0.295,0.293,0.2911,0.3124,0.3124,0.2441,0.2436,0.2433]},{"header":{"parameterUnit":"m.s-1","parameterCategory":2,"la1":30.2991,"la2":30.254,"lo1":-89.0895,"lo2":-89.0444,"dy":0.0017,"dx":0.0017,"nx":28,"ny":28,"refTime":"2025-08-05T21:00:00:Z","depth":"0","parameterNumber":3,"parameterNumberName":"V-component_of_CURRENTS"},"data":[0,0,0,0,0,0,0,0,0,0,0,0,0,0,0,0,0,0,0,0,0,0,0,0,0,0,0,0,0,0,0,0,0,0,0,0,0,0,0,0,0,0,0,0,0,0,0,0,0,0,0,0,0,0,0,0,0,0,-0.01,-0.01,0,-0.0178,-0.0179,-0.018,-0.0218,-0.0218,-0.0218,-0.0218,-0.0322,-0.0325,-0.0328,0,0,0,0,0,0,0,0,0,0,0,0,0,-0.0026,-0.0027,-0.01,-0.01,-0.0101,-0.0177,-0.0179,-0.018,-0.0218,-0.0218,-0.0218,-0.0218,-0.0321,-0.0325,-0.0328,0,0,0,0,0,0,0,0,0,0,0,0,0,-0.0077,-0.0027,-0.0099,-0.0129,-0.0132,-0.0177,-0.0179,-0.018,-0.0218,-0.0218,-0.0218,-0.0218,-0.032,-0.0324,-0.0328,-0.0358,0,0,-0.0342,-0.0343,0,0,0,0,0,0,0,0,-0.0074,-0.008,-0.0124,-0.0127,-0.0131,-0.0187,-0.0191,-0.0241,-0.0218,-0.0187,-0.0218,-0.0218,-0.0279,-0.0286,-0.0303,-0.0363,-0.0367,-0.0342,-0.0345,-0.0346,-0.0348,0,0,0,0,0,0,0,-0.007,-0.0077,-0.0132,-0.0125,-0.0129,-0.0152,-0.0159,-0.0201,-0.0234,-0.019,-0.0192,-0.0199,-0.0281,-0.0298,-0.0306,-0.0369,-0.0342,-0.0346,-0.0348,-0.035,-0.0434,-0.0434,0,0,0,0,0,0,-0.0057,-0.0073,-0.0129,-0.0134,-0.01,-0.0154,-0.0161,-0.017,-0.0233,-0.0242,-0.0199,-0.0201,-0.0291,-0.03,-0.0309,-0.0321,-0.0346,-0.035,-0.0353,-0.0435,-0.0434,-0.0434,0,0,0,0,0,0,-0.0055,-0.0061,-0.0126,-0.0104,-0.0114,-0.0155,-0.0164,-0.0172,-0.0189,-0.024,-0.025,-0.0208,-0.0291,-0.0303,-0.0342,-0.0326,-0.0352,-0.0356,-0.0435,-0.0435,-0.0434,-0.0361,0,0,0,0,0,0,-0.0052,-0.006,-0.0064,-0.0103,-0.0115,-0.0147,-0.0165,-0.0173,-0.0193,-0.0195,-0.0251,-0.0261,-0.0292,-0.0335,-0.0346,-0.0332,-0.036,-0.0436,-0.0435,-0.0434,-0.0364,-0.0358,-0.0353,0,0,0,0,0,-0.0049,-0.0055,-0.0063,-0.007,-0.0118,-0.0147,-0.0155,-0.0184,-0.0193,-0.0199,-0.0235,-0.0259,-0.0338,-0.0339,-0.0352,-0.0339,-0.0436,-0.0435,-0.0434,-0.0366,-0.0359,-0.0353,0,0,0,0,0,0,-0.003,-0.0061,-0.007,-0.0086,-0.0111,-0.0153,-0.0164,-0.0182,-0.0216,-0.022,-0.0265,-0.0277,-0.0302,-0.0335,-0.0334,-0.0361,-0.0387,-0.0389,-0.0331,-0.0325,-0.0319,-0.0296,-0.0363,0,0,0,0,0,-0.0025,-0.0035,-0.0067,-0.008,-0.009,-0.0126,-0.0142,-0.016,-0.0194,-0.0209,-0.0245,-0.0282,-0.031,-0.0328,-0.0363,-0.0386,-0.041,-0.0383,-0.0378,-0.0373,-0.0362,-0.0387,-0.0383,-0.0432,-0.0432,-0.0432,0,0,-0.0022,-0.004,-0.0047,-0.0076,-0.0099,-0.0106,-0.0136,-0.0157,-0.0159,-0.0216,-0.0233,-0.027,-0.0313,-0.0332,-0.0345,-0.0357,-0.0372,-0.0372,-0.0367,-0.0359,-0.0386,-0.0381,-0.0377,-0.0431,-0.0431,-0.0431,0,0,-0.0016,-0.0035,-0.0038,-0.0052,-0.0078,-0.0097,-0.0098,-0.0136,-0.0147,-0.0172,-0.0204,-0.0226,-0.0283,-0.0298,-0.0315,-0.0303,-0.0345,-0.0318,-0.0271,-0.0295,-0.0291,-0.0287,-0.0311,-0.031,-0.0313,-0.0313,-0.0312,0,-0.001,-0.0019,-0.0044,-0.0046,-0.0053,-0.0086,-0.0085,-0.01,-0.0143,-0.015,-0.0168,-0.0227,-0.0259,-0.0269,-0.0258,-0.0287,-0.0315,-0.029,-0.0286,-0.0284,-0.0281,-0.0306,-0.0306,-0.0309,-0.0309,-0.031,-0.031,0,-0.0004,-0.0008,-0.0011,-0.0019,-0.0027,-0.0036,-0.0052,-0.0061,-0.0079,-0.0098,-0.0118,-0.016,-0.0193,-0.02,-0.0226,-0.0222,-0.0251,-0.0277,-0.0298,-0.0272,-0.03,-0.0301,-0.0304,-0.0305,-0.0306,-0.0307,0,0,0.0003,-0.0004,-0.0004,-0.0,-0.0012,-0.0021,-0.0013,-0.0022,-0.0019,-0.0049,-0.005,-0.008,-0.0106,-0.0125,-0.0158,-0.0168,-0.017,-0.021,-0.0213,-0.0224,-0.0229,-0.0193,-0.0192,-0.0202,-0.0202,-0.0202,-0.0253,0,0.0015,0.0021,0.0017,0.0028,0.003,0.0019,0.0029,0.002,0.0005,-0.0004,-0.003,-0.005,-0.0076,-0.0092,-0.0104,-0.0159,-0.0171,-0.0154,-0.026,-0.0263,-0.0227,-0.0191,-0.0147,-0.0184,-0.0255,-0.0255,-0.0256,0,0.0025,0.0028,0.0041,0.0053,0.0053,0.0059,0.0067,0.0071,0.006,0.0049,0.0033,-0.0001,-0.0014,-0.0045,-0.0106,-0.0099,-0.0152,-0.0191,-0.0194,-0.0185,-0.0229,-0.0224,-0.0184,-0.0376,-0.0258,-0.0258,-0.0258,0,0.0037,0.0047,0.0059,0.0061,0.0069,0.0078,0.0084,0.0083,0.0115,0.008,0.0107,0.0045,0.005,-0.0033,-0.0087,-0.0114,-0.0151,-0.0208,-0.0224,-0.0224,-0.0216,-0.0214,-0.0363,-0.0248,-0.0248,-0.0248,-0.0248,0,0.005,0.0059,0.0064,0.007,0.0094,0.0092,0.0123,0.0118,0.0151,0.0234,0.014,0.0211,0.0058,0.003,-0.0069,-0.0124,-0.0139,-0.02,-0.0226,-0.0189,-0.0184,-0.0375,-0.0489,-0.025,-0.025,-0.0249,-0.0249,0,0.0057,0.006,0.0076,0.0089,0.0099,0.0114,0.0178,0.0236,0.0233,0.0344,0.0352,0.0337,0.0307,0.0165,0.0043,-0.0063,-0.0252,-0.0174,-0.0114,-0.013,-0.0345,-0.0455,-0.0604,-0.0724,-0.0232,-0.0231,-0.023,0,0.0061,0.0068,0.0091,0.0129,0.0139,0.0173,0.0245,0.0271,0.0378,0.0476,0.0581,0.0549,0.0617,0.0423,0.0197,0.0,-0.0186,-0.0111,-0.015,-0.0333,-0.0476,-0.0556,-0.0655,-0.0124,-0.0122,-0.0121,-0.012,0,0.0084,0.0089,0.0114,0.02,0.0272,0.0365,0.0477,0.0573,0.0678,0.0774,0.0962,0.1002,0.0827,0.0655,0.0339,0.0195,-0.0256,-0.0092,-0.0305,-0.041,-0.0484,-0.0619,-0.0126,-0.011,-0.0111,-0.0112,-0.0112,-0.0113,0.0124,0.0163,0.0236,0.0318,0.0419,0.0621,0.0739,0.0895,0.1088,0.1304,0.1299,0.14,0.1073,0.0662,0.0382,-0.0118,-0.0165,-0.0275,-0.0396,-0.0462,-0.0568,-0.0038,-0.0033,-0.0033,-0.0034,-0.0034,-0.0034,0,0.0246,0.0305,0.038,0.054,0.0706,0.073,0.0973,0.1128,0.1398,0.1545,0.1688,0.1624,0.1194,0.0705,0.0049,-0.0347,-0.0545,-0.0586,-0.0725,-0.0819,-0.0359,-0.0344,-0.0376,-0.0376,-0.0376,-0.0376,-0.0375,-0.0375,0.0338,0.0473,0.0526,0.0814,0.0924,0.1206,0.1365,0.1554,0.1696,0.1902,0.1968,0.2,0.1668,0.0414,-0.0481,-0.0695,-0.1054,-0.1082,-0.1308,-0.1023,-0.1004,-0.0987,-0.1001,-0.1171,-0.1172,-0.1715,-0.1721,-0.1725]}],[{"header":{"parameterUnit":"m.s-1","parameterCategory":2,"la1":30.2991,"la2":30.254,"lo1":-89.0895,"lo2":-89.0444,"dy":0.0017,"dx":0.0017,"nx":28,"ny":28,"refTime":"2025-08-05T21:00:00:Z","depth":"2","parameterNumber":2,"parameterNumberName":"U-component_of_CURRENTS"},"data":[0,0,0,0,0,0,0,0,0,0,0,0,0,0,0,0,0,0,0,0,0,0,0,0,0,0,0,0,0,0,0,0,0,0,0,0,0,0,0,0,0,0,0,0,0,0,0,0,0,0,0,0,0,0,0,0,0,0,0.1301,0.1301,0,0.1302,0.1301,0.1301,0.1279,0.1278,0.1278,0.1277,0.123,0.1229,0.1228,0,0,0,0,0,0,0,0,0,0,0,0,0,0.1273,0.1273,0.1301,0.1301,0.1301,0.1302,0.1301,0.1301,0.1279,0.1278,0.1278,0.1277,0.123,0.1229,0.1228,0,0,0,0,0,0,0,0,0,0,0,0,0,0.1278,0.1274,0.1301,0.1292,0.1291,0.1302,0.1301,0.1301,0.1279,0.1278,0.1278,0.1277,0.123,0.1229,0.1228,0.1231,0,0,0.1223,0.1223,0,0,0,0,0,0,0,0,0.1278,0.1279,0.1293,0.1293,0.1292,0.1291,0.1274,0.1276,0.1279,0.1281,0.1277,0.1277,0.1248,0.1245,0.1244,0.1228,0.1226,0.1223,0.1223,0.1222,0.1222,0,0,0,0,0,0,0,0.1278,0.1279,0.1299,0.1293,0.1293,0.1286,0.1285,0.1274,0.1265,0.1281,0.128,0.1284,0.1247,0.1245,0.1242,0.1226,0.1223,0.1222,0.1221,0.1221,0.1244,0.1246,0,0,0,0,0,0,0.1284,0.1279,0.1299,0.1299,0.1286,0.1287,0.1287,0.129,0.1266,0.1263,0.1284,0.1283,0.1248,0.1244,0.124,0.128,0.1222,0.1221,0.122,0.1243,0.1245,0.1246,0,0,0,0,0,0,0.1283,0.1285,0.1299,0.1291,0.1292,0.1288,0.1292,0.1291,0.1293,0.127,0.1265,0.1289,0.1247,0.1242,0.1244,0.1276,0.122,0.1219,0.1241,0.1244,0.1246,0.1334,0,0,0,0,0,0,0.1282,0.1285,0.129,0.1291,0.1293,0.1313,0.1293,0.1291,0.1297,0.1295,0.1272,0.1267,0.1246,0.1247,0.1243,0.1273,0.1218,0.1239,0.1242,0.1245,0.1329,0.1339,0.1347,0,0,0,0,0,0.1281,0.1291,0.129,0.1292,0.1299,0.1314,0.1314,0.1307,0.1298,0.1306,0.1294,0.1268,0.1261,0.1247,0.1242,0.1273,0.1238,0.1242,0.1245,0.1325,0.1337,0.1347,0,0,0,0,0,0,0.1277,0.129,0.1288,0.13,0.1311,0.1311,0.1318,0.1314,0.1312,0.1309,0.1282,0.1277,0.1292,0.127,0.1255,0.1288,0.1247,0.125,0.131,0.1321,0.133,0.1337,0.1217,0,0,0,0,0,0.1281,0.1292,0.1303,0.1312,0.132,0.1321,0.1326,0.1324,0.1323,0.1322,0.1309,0.1299,0.1302,0.1301,0.1293,0.1309,0.1317,0.1327,0.1336,0.1344,0.1347,0.1395,0.141,0.1257,0.1257,0.1257,0,0,0.128,0.1291,0.1295,0.1313,0.1318,0.1339,0.1322,0.1336,0.1354,0.1317,0.1333,0.1327,0.1312,0.1334,0.1339,0.132,0.1396,0.1348,0.1355,0.1354,0.14,0.1415,0.1429,0.1259,0.1259,0.1259,0,0,0.129,0.1297,0.1312,0.1327,0.1346,0.1353,0.1361,0.1371,0.1376,0.1393,0.1379,0.1398,0.1386,0.1398,0.1399,0.1453,0.1441,0.1446,0.15,0.1548,0.1561,0.1572,0.1625,0.1641,0.1453,0.1454,0.1454,0,0.1286,0.1309,0.1318,0.1342,0.1357,0.1364,0.1386,0.14,0.1409,0.1423,0.1407,0.1432,0.1423,0.1466,0.1488,0.1476,0.1497,0.1461,0.1561,0.1572,0.1583,0.1634,0.165,0.1458,0.1458,0.1457,0.1457,0,0.1311,0.1331,0.1344,0.1377,0.1396,0.1417,0.1441,0.1462,0.1469,0.1483,0.1522,0.1522,0.1537,0.1547,0.1533,0.1605,0.1596,0.1567,0.1536,0.1604,0.1653,0.1668,0.1465,0.1463,0.1462,0.1461,0,0,0.1294,0.1349,0.1353,0.1374,0.1416,0.1432,0.1476,0.1516,0.1544,0.1568,0.1609,0.1638,0.1642,0.1644,0.1641,0.1685,0.179,0.1661,0.1662,0.1719,0.1905,0.1872,0.1885,0.1777,0.178,0.1782,0.1919,0,0.1308,0.1354,0.1381,0.1424,0.1449,0.148,0.1515,0.1555,0.1586,0.1629,0.1661,0.169,0.1678,0.169,0.1741,0.1766,0.1829,0.1756,0.1825,0.1828,0.1794,0.1901,0.1741,0.1846,0.1933,0.1936,0.1937,0,0.1322,0.1353,0.1393,0.1448,0.1461,0.1485,0.1545,0.1579,0.1649,0.1673,0.1727,0.1745,0.1823,0.1792,0.1904,0.1857,0.1896,0.1919,0.1924,0.1869,0.1823,0.1787,0.187,0.1962,0.196,0.1958,0.1957,0,0.13,0.1361,0.1391,0.1409,0.1471,0.1491,0.1523,0.1587,0.1625,0.1702,0.1742,0.1821,0.1868,0.1928,0.1992,0.1953,0.2114,0.2061,0.2078,0.2076,0.194,0.1922,0.2158,0.2158,0.2157,0.2157,0.2157,0,0.1303,0.1325,0.1378,0.1392,0.1422,0.1473,0.1512,0.1556,0.1633,0.1699,0.1757,0.1834,0.1905,0.2001,0.2037,0.2121,0.216,0.2117,0.2119,0.1968,0.1952,0.2034,0.2018,0.2162,0.2161,0.216,0.2159,0,0.1268,0.1308,0.1336,0.1393,0.1408,0.1423,0.149,0.1533,0.1605,0.1697,0.1729,0.1868,0.1995,0.207,0.2187,0.2183,0.2253,0.2273,0.2098,0.2076,0.2173,0.2159,0.2303,0.2303,0.2303,0.2303,0.2303,0,0.1249,0.1262,0.1311,0.1328,0.1347,0.1382,0.1415,0.1496,0.1562,0.1729,0.1789,0.1939,0.2042,0.2201,0.223,0.23,0.2319,0.218,0.2071,0.2206,0.2193,0.2179,0.2166,0.1939,0.1936,0.1934,0.1932,0,0.1208,0.1223,0.1249,0.1283,0.1313,0.1355,0.1421,0.1468,0.1597,0.1689,0.1855,0.1944,0.2094,0.2104,0.2178,0.2187,0.2145,0.2134,0.2346,0.1917,0.1871,0.1855,0.1853,0.1911,0.1913,0.1915,0.1916,0.1917,0.1164,0.1172,0.1212,0.1243,0.1283,0.1342,0.1377,0.1474,0.1575,0.1694,0.1813,0.1877,0.1943,0.1968,0.1968,0.1965,0.2088,0.199,0.1994,0.2001,0.1925,0.188,0.1909,0.1911,0.1913,0.1915,0.1916,0,0.1124,0.1151,0.1178,0.123,0.1275,0.1308,0.1401,0.142,0.153,0.162,0.1703,0.1602,0.1632,0.1702,0.1674,0.1701,0.1645,0.1636,0.1545,0.1569,0.1589,0.1487,0.1358,0.1356,0.1354,0.1352,0,0,0.1107,0.113,0.1158,0.1218,0.126,0.1321,0.1371,0.1371,0.142,0.1421,0.1435,0.1505,0.1635,0.1446,0.1462,0.141,0.1463,0.1359,0.1813,0.1728,0.1745,0.1812,0.1686,0,0,0,0,0]},{"header":{"parameterUnit":"m.s-1","parameterCategory":2,"la1":30.2991,"la2":30.254,"lo1":-89.0895,"lo2":-89.0444,"dy":0.0017,"dx":0.0017,"nx":28,"ny":28,"refTime":"2025-08-05T21:00:00:Z","depth":"2","parameterNumber":3,"parameterNumberName":"V-component_of_CURRENTS"},"data":[0,0,0,0,0,0,0,0,0,0,0,0,0,0,0,0,0,0,0,0,0,0,0,0,0,0,0,0,0,0,0,0,0,0,0,0,0,0,0,0,0,0,0,0,0,0,0,0,0,0,0,0,0,0,0,0,0,0,-0.0277,-0.0277,0,-0.0331,-0.0332,-0.0333,-0.0355,-0.0354,-0.0354,-0.0354,-0.0419,-0.042,-0.0422,0,0,0,0,0,0,0,0,0,0,0,0,0,-0.0216,-0.0217,-0.0277,-0.0277,-0.0278,-0.0331,-0.0332,-0.0333,-0.0355,-0.0354,-0.0354,-0.0354,-0.0418,-0.042,-0.0422,0,0,0,0,0,0,0,0,0,0,0,0,0,-0.0254,-0.0217,-0.0277,-0.0295,-0.0297,-0.0331,-0.0332,-0.0333,-0.0355,-0.0354,-0.0354,-0.0354,-0.0417,-0.042,-0.0423,-0.0445,0,0,-0.0431,-0.0432,0,0,0,0,0,0,0,0,-0.0251,-0.0256,-0.0292,-0.0294,-0.0296,-0.0336,-0.0334,-0.0371,-0.0355,-0.0333,-0.0354,-0.0354,-0.0392,-0.0397,-0.0408,-0.0448,-0.045,-0.0431,-0.0433,-0.0434,-0.0435,0,0,0,0,0,0,0,-0.0249,-0.0254,-0.0299,-0.0293,-0.0295,-0.0309,-0.0314,-0.0341,-0.0363,-0.0335,-0.0337,-0.0342,-0.0393,-0.0405,-0.0409,-0.0451,-0.0431,-0.0434,-0.0436,-0.0437,-0.0505,-0.0505,0,0,0,0,0,0,-0.0241,-0.0251,-0.0297,-0.03,-0.0273,-0.031,-0.0316,-0.0324,-0.0363,-0.0369,-0.0343,-0.0343,-0.04,-0.0406,-0.0412,-0.0424,-0.0434,-0.0437,-0.0439,-0.0505,-0.0505,-0.0505,0,0,0,0,0,0,-0.0239,-0.0244,-0.0295,-0.0277,-0.0284,-0.0311,-0.032,-0.0325,-0.0333,-0.0369,-0.0374,-0.0345,-0.04,-0.0408,-0.0434,-0.0427,-0.0438,-0.0441,-0.0504,-0.0505,-0.0505,-0.0458,0,0,0,0,0,0,-0.0237,-0.0244,-0.0245,-0.0276,-0.0285,-0.0308,-0.032,-0.0326,-0.0337,-0.0338,-0.0373,-0.0379,-0.0401,-0.0429,-0.0436,-0.0431,-0.0443,-0.0504,-0.0505,-0.0505,-0.046,-0.0457,-0.0454,0,0,0,0,0,-0.0235,-0.0237,-0.0244,-0.025,-0.0286,-0.0308,-0.0314,-0.0333,-0.0337,-0.0339,-0.0364,-0.0377,-0.0436,-0.0432,-0.044,-0.0435,-0.0504,-0.0504,-0.0505,-0.0461,-0.0457,-0.0454,0,0,0,0,0,0,-0.021,-0.024,-0.0249,-0.026,-0.0279,-0.0312,-0.0316,-0.0329,-0.0351,-0.0351,-0.0383,-0.0391,-0.0411,-0.0433,-0.0427,-0.0457,-0.0471,-0.0473,-0.0435,-0.0432,-0.0429,-0.0409,-0.0445,0,0,0,0,0,-0.0205,-0.0214,-0.0244,-0.0251,-0.0259,-0.0287,-0.0297,-0.031,-0.0335,-0.0344,-0.0368,-0.0395,-0.042,-0.0432,-0.0459,-0.0477,-0.0497,-0.0479,-0.0476,-0.0474,-0.0464,-0.0493,-0.0491,-0.0506,-0.0506,-0.0506,0,0,-0.0198,-0.0215,-0.022,-0.0246,-0.0263,-0.0271,-0.0292,-0.0305,-0.0309,-0.0348,-0.0359,-0.0389,-0.0424,-0.0443,-0.0453,-0.0458,-0.0482,-0.0474,-0.0472,-0.0463,-0.0493,-0.0491,-0.049,-0.0506,-0.0506,-0.0506,0,0,-0.0184,-0.0201,-0.0203,-0.0217,-0.024,-0.0257,-0.0258,-0.0287,-0.0296,-0.0314,-0.0342,-0.0365,-0.0403,-0.0425,-0.0442,-0.0442,-0.0469,-0.0452,-0.042,-0.0448,-0.0447,-0.0446,-0.0471,-0.0473,-0.0448,-0.0448,-0.0448,0,-0.017,-0.018,-0.0206,-0.021,-0.0216,-0.0247,-0.0245,-0.0262,-0.0294,-0.03,-0.0309,-0.0364,-0.0392,-0.0415,-0.0413,-0.0434,-0.0455,-0.0427,-0.0443,-0.0443,-0.0442,-0.0469,-0.0471,-0.0446,-0.0446,-0.0446,-0.0446,0,-0.0161,-0.0166,-0.0167,-0.0181,-0.019,-0.0195,-0.0219,-0.0228,-0.0242,-0.0261,-0.0284,-0.0325,-0.0354,-0.0368,-0.0389,-0.0403,-0.0419,-0.0437,-0.0446,-0.0438,-0.0467,-0.047,-0.0442,-0.0443,-0.0444,-0.0444,0,0,-0.0134,-0.0155,-0.0154,-0.0151,-0.0174,-0.0179,-0.0184,-0.02,-0.0197,-0.023,-0.0232,-0.0276,-0.0297,-0.0317,-0.0351,-0.037,-0.0387,-0.0395,-0.0398,-0.0412,-0.0447,-0.0457,-0.0462,-0.0408,-0.0408,-0.0409,-0.0468,0,-0.0115,-0.0111,-0.0128,-0.0118,-0.0117,-0.014,-0.0138,-0.0155,-0.0173,-0.0184,-0.0226,-0.0243,-0.0279,-0.0288,-0.0316,-0.037,-0.0394,-0.0369,-0.0461,-0.0463,-0.0466,-0.0465,-0.0431,-0.048,-0.0471,-0.0472,-0.0473,0,-0.0097,-0.0097,-0.0085,-0.0082,-0.0082,-0.0079,-0.0079,-0.0084,-0.011,-0.0123,-0.0153,-0.0187,-0.0224,-0.0252,-0.0337,-0.032,-0.0376,-0.0417,-0.0421,-0.0446,-0.0479,-0.0489,-0.0487,-0.0479,-0.0478,-0.0478,-0.0477,0,-0.0064,-0.0063,-0.005,-0.0052,-0.0056,-0.0048,-0.0048,-0.0064,-0.0057,-0.0084,-0.008,-0.0142,-0.0157,-0.0239,-0.0326,-0.0332,-0.0417,-0.0443,-0.0506,-0.0508,-0.0504,-0.0504,-0.05,-0.05,-0.05,-0.05,-0.0499,0,-0.0038,-0.0025,-0.0033,-0.0025,-0.0,-0.0013,0.0011,0.0001,-0.0001,0.0017,-0.0044,-0.0043,-0.0151,-0.0213,-0.0309,-0.0414,-0.041,-0.0497,-0.0522,-0.0488,-0.0486,-0.0504,-0.0504,-0.0502,-0.0501,-0.0501,-0.05,0,-0.0005,-0.0012,0.0005,0.0009,0.0014,0.0033,0.0054,0.0073,0.0066,0.0088,0.0086,0.0035,-0.0049,-0.0167,-0.0293,-0.0378,-0.0487,-0.0526,-0.0475,-0.0494,-0.0567,-0.0564,-0.0609,-0.061,-0.0611,-0.0611,-0.0612,0,0.0014,0.0022,0.0033,0.0051,0.0055,0.008,0.0102,0.0104,0.0129,0.0137,0.0155,0.0092,0.0042,-0.0152,-0.0305,-0.0476,-0.0499,-0.0549,-0.0558,-0.0557,-0.0578,-0.0573,-0.0569,-0.0538,-0.0538,-0.0538,-0.0537,0,0.005,0.0049,0.0062,0.0093,0.0118,0.0153,0.0187,0.0211,0.0224,0.023,0.0234,0.0196,0.0041,-0.0111,-0.0321,-0.0437,-0.0521,-0.0552,-0.0565,-0.0513,-0.0494,-0.0513,-0.0511,-0.0536,-0.0536,-0.0536,-0.0537,-0.0537,0.0081,0.0092,0.0105,0.0134,0.0171,0.0218,0.0232,0.0272,0.0295,0.0328,0.0305,0.0277,0.0123,-0.0134,-0.0327,-0.0513,-0.0526,-0.0583,-0.0582,-0.0581,-0.0559,-0.0543,-0.059,-0.059,-0.0591,-0.0591,-0.0591,0,0.0103,0.0116,0.0149,0.0174,0.021,0.024,0.0283,0.0301,0.0313,0.0391,0.0389,0.0279,0.0108,-0.0072,-0.034,-0.0523,-0.0534,-0.0578,-0.0541,-0.0542,-0.0542,-0.0517,-0.0538,-0.0538,-0.0538,-0.0538,0,0,0.0119,0.0135,0.014,0.0192,0.0229,0.0263,0.0283,0.0325,0.0375,0.043,0.0459,0.0453,0.0215,0.0042,-0.0211,-0.0365,-0.0413,-0.0402,-0.0427,-0.0356,-0.0353,-0.0531,-0.049,0,0,0,0,0]}],[{"header":{"parameterUnit":"m.s-1","parameterCategory":2,"la1":30.2991,"la2":30.254,"lo1":-89.0895,"lo2":-89.0444,"dy":0.0017,"dx":0.0017,"nx":28,"ny":28,"refTime":"2025-08-05T21:00:00:Z","depth":"4","parameterNumber":2,"parameterNumberName":"U-component_of_CURRENTS"},"data":[0,0,0,0,0,0,0,0,0,0,0,0,0,0,0,0,0,0,0,0,0,0,0,0,0,0,0,0,0,0,0,0,0,0,0,0,0,0,0,0,0,0,0,0,0,0,0,0,0,0,0,0,0,0,0,0,0,0,0.0741,0.0741,0,0.0759,0.0759,0.0759,0.0784,0.0785,0.0785,0.0786,0.0843,0.0844,0.0845,0,0,0,0,0,0,0,0,0,0,0,0,0,0.0711,0.0711,0.0741,0.0741,0.0742,0.0759,0.0759,0.0759,0.0784,0.0785,0.0786,0.0786,0.0843,0.0844,0.0845,0,0,0,0,0,0,0,0,0,0,0,0,0,0.0725,0.0711,0.0741,0.0757,0.0758,0.0759,0.0759,0.0759,0.0784,0.0785,0.0786,0.0786,0.0842,0.0844,0.0845,0.084,0,0,0.085,0.0851,0,0,0,0,0,0,0,0,0.0724,0.0726,0.0754,0.0756,0.0758,0.0771,0.0769,0.0788,0.0784,0.0774,0.0786,0.0787,0.0823,0.0826,0.0826,0.0842,0.0845,0.085,0.0851,0.0852,0.0852,0,0,0,0,0,0,0,0.0723,0.0725,0.0747,0.0754,0.0757,0.0757,0.076,0.0773,0.0794,0.0775,0.0777,0.078,0.0824,0.0824,0.0827,0.0846,0.085,0.0852,0.0853,0.0853,0.0894,0.0894,0,0,0,0,0,0,0.0723,0.0724,0.0747,0.0748,0.0743,0.0757,0.076,0.0765,0.0793,0.0798,0.0779,0.0781,0.0821,0.0825,0.0829,0.0881,0.0852,0.0853,0.0854,0.0894,0.0894,0.0894,0,0,0,0,0,0,0.0722,0.0725,0.0746,0.0737,0.074,0.0757,0.0762,0.0765,0.0784,0.0796,0.0801,0.0797,0.0822,0.0827,0.0857,0.0881,0.0854,0.0855,0.0894,0.0894,0.0894,0.0948,0,0,0,0,0,0,0.0721,0.0724,0.0736,0.0737,0.074,0.0761,0.0762,0.0765,0.0784,0.0787,0.0813,0.0818,0.0823,0.0855,0.0859,0.0883,0.0857,0.0894,0.0894,0.0894,0.0946,0.095,0.0953,0,0,0,0,0,0.072,0.073,0.0736,0.0739,0.0753,0.0762,0.0764,0.0778,0.0785,0.0797,0.0814,0.0818,0.0859,0.0857,0.0861,0.0886,0.0893,0.0894,0.0894,0.0944,0.0949,0.0953,0,0,0,0,0,0,0.0725,0.0734,0.074,0.0754,0.0765,0.0767,0.0781,0.0787,0.0808,0.0818,0.0826,0.0832,0.0867,0.0862,0.0859,0.0895,0.0874,0.0876,0.0911,0.0916,0.0919,0.0936,0.0858,0,0,0,0,0,0.073,0.0742,0.0749,0.0763,0.0769,0.0778,0.0786,0.0796,0.081,0.0821,0.0842,0.0856,0.0867,0.0881,0.0893,0.0915,0.0918,0.093,0.0934,0.0937,0.0951,0.0975,0.0984,0.0895,0.0895,0.0895,0,0,0.0736,0.0743,0.0751,0.0765,0.0775,0.0787,0.0785,0.0806,0.0821,0.0824,0.0865,0.0877,0.0875,0.0904,0.0918,0.0907,0.096,0.0937,0.0941,0.0953,0.0977,0.0986,0.0994,0.0896,0.0895,0.0895,0,0,0.0749,0.0761,0.0774,0.0785,0.0804,0.0808,0.0818,0.0837,0.0853,0.0884,0.0889,0.0917,0.0938,0.0946,0.0947,0.0974,0.0981,0.0977,0.1014,0.1038,0.1046,0.1053,0.1059,0.1066,0.0977,0.0978,0.0978,0,0.0758,0.0774,0.078,0.0796,0.081,0.0819,0.0838,0.0849,0.088,0.0904,0.0905,0.0951,0.0955,0.0982,0.0995,0.0987,0.0998,0.1001,0.1046,0.1053,0.1059,0.1064,0.1071,0.098,0.098,0.098,0.0979,0,0.0775,0.0794,0.0804,0.0826,0.0841,0.0861,0.0875,0.0905,0.0926,0.0945,0.0993,0.1001,0.1031,0.1031,0.1025,0.1072,0.1064,0.1051,0.1041,0.1072,0.1073,0.108,0.0984,0.0983,0.0982,0.0982,0,0,0.0774,0.0809,0.0815,0.0833,0.0862,0.0874,0.0908,0.0942,0.0973,0.1009,0.1054,0.1075,0.1098,0.11,0.11,0.1121,0.1171,0.1116,0.1116,0.1134,0.1225,0.1191,0.1195,0.1179,0.118,0.1182,0.1205,0,0.0788,0.0821,0.0838,0.0873,0.0889,0.0917,0.0945,0.0982,0.1014,0.1063,0.1083,0.1126,0.1115,0.1142,0.1163,0.1185,0.1195,0.1166,0.1182,0.1182,0.1159,0.1204,0.1187,0.121,0.1211,0.1213,0.1213,0,0.0796,0.0818,0.0855,0.09,0.0912,0.0941,0.0998,0.1025,0.1086,0.1116,0.1167,0.119,0.1245,0.1217,0.127,0.1261,0.1249,0.1247,0.1248,0.1207,0.1163,0.1172,0.1226,0.1225,0.1224,0.1223,0.1222,0,0.0782,0.083,0.0862,0.0876,0.0926,0.0962,0.0998,0.1055,0.109,0.1164,0.1209,0.1263,0.1305,0.132,0.1339,0.1315,0.1386,0.134,0.1286,0.1282,0.1281,0.1273,0.1354,0.1354,0.1354,0.1354,0.1354,0,0.0777,0.0804,0.0865,0.0878,0.0929,0.0969,0.1025,0.1071,0.1141,0.1187,0.1244,0.1284,0.1339,0.1384,0.1374,0.1376,0.1415,0.1309,0.1297,0.1299,0.1293,0.1285,0.1277,0.1355,0.1355,0.1354,0.1354,0,0.0748,0.0787,0.0823,0.0892,0.092,0.0958,0.1042,0.1077,0.1155,0.1219,0.1253,0.1333,0.1392,0.1432,0.1462,0.1419,0.142,0.1394,0.1411,0.1396,0.128,0.1274,0.1328,0.1328,0.1327,0.1327,0.1326,0,0.0731,0.0748,0.0825,0.0854,0.0891,0.0952,0.099,0.1075,0.1106,0.123,0.1251,0.1352,0.1391,0.141,0.145,0.1451,0.1417,0.1406,0.1325,0.1301,0.1283,0.1278,0.1273,0.1325,0.1325,0.1325,0.1325,0,0.0699,0.0734,0.0766,0.0823,0.0874,0.0918,0.0981,0.1003,0.1093,0.1178,0.1228,0.1274,0.1335,0.1365,0.1398,0.1381,0.1421,0.1398,0.1397,0.1321,0.1297,0.1279,0.1275,0.1322,0.1323,0.1323,0.1323,0,0.0677,0.0693,0.0742,0.0786,0.0846,0.0876,0.091,0.0951,0.1,0.1126,0.1138,0.1238,0.1315,0.1329,0.1354,0.1364,0.1314,0.1252,0.1258,0.1261,0.1233,0.1193,0.1191,0,0,0,0,0,0.0652,0.0668,0.0702,0.075,0.0804,0.0838,0.0899,0.0928,0.1014,0.1023,0.1081,0.113,0.119,0.1233,0.1225,0.1319,0.1321,0.1305,0.1251,0.131,0.1313,0.1289,0,0,0,0,0,0,0.0639,0.0672,0.0684,0.071,0.0734,0.0785,0.0821,0.0874,0.0871,0.0964,0.099,0.1075,0.1133,0.1187,0.1209,0.1225,0.1172,0.1367,0.1365,0.1309,0.1311,0.1313,0.129,0,0,0,0,0]},{"header":{"parameterUnit":"m.s-1","parameterCategory":2,"la1":30.2991,"la2":30.254,"lo1":-89.0895,"lo2":-89.0444,"dy":0.0017,"dx":0.0017,"nx":28,"ny":28,"refTime":"2025-08-05T21:00:00:Z","depth":"4","parameterNumber":3,"parameterNumberName":"V-component_of_CURRENTS"},"data":[0,0,0,0,0,0,0,0,0,0,0,0,0,0,0,0,0,0,0,0,0,0,0,0,0,0,0,0,0,0,0,0,0,0,0,0,0,0,0,0,0,0,0,0,0,0,0,0,0,0,0,0,0,0,0,0,0,0,-0.0107,-0.0107,0,-0.0112,-0.0112,-0.0112,-0.0131,-0.0132,-0.0132,-0.0132,-0.0147,-0.0147,-0.0147,0,0,0,0,0,0,0,0,0,0,0,0,0,-0.0105,-0.0105,-0.0107,-0.0107,-0.0107,-0.0112,-0.0112,-0.0112,-0.0131,-0.0132,-0.0132,-0.0133,-0.0147,-0.0147,-0.0147,0,0,0,0,0,0,0,0,0,0,0,0,0,-0.0107,-0.0105,-0.0107,-0.0117,-0.0118,-0.0112,-0.0112,-0.0112,-0.0131,-0.0132,-0.0132,-0.0133,-0.0147,-0.0147,-0.0147,-0.0133,0,0,-0.0146,-0.0146,0,0,0,0,0,0,0,0,-0.0107,-0.0107,-0.0116,-0.0117,-0.0118,-0.0122,-0.0116,-0.0119,-0.0131,-0.0126,-0.0132,-0.0133,-0.0139,-0.0139,-0.0138,-0.0133,-0.0134,-0.0146,-0.0146,-0.0146,-0.0146,0,0,0,0,0,0,0,-0.0107,-0.0107,-0.0109,-0.0116,-0.0117,-0.0118,-0.012,-0.0117,-0.0129,-0.0126,-0.0128,-0.0128,-0.0139,-0.0138,-0.0139,-0.0134,-0.0146,-0.0146,-0.0146,-0.0146,-0.018,-0.0181,0,0,0,0,0,0,-0.0106,-0.0107,-0.0109,-0.0109,-0.0114,-0.0118,-0.0119,-0.012,-0.0128,-0.013,-0.0128,-0.0129,-0.0138,-0.0139,-0.014,-0.0167,-0.0146,-0.0146,-0.0146,-0.0179,-0.018,-0.0181,0,0,0,0,0,0,-0.0106,-0.0106,-0.0108,-0.0108,-0.0109,-0.0117,-0.0118,-0.0119,-0.0125,-0.0129,-0.0132,-0.0133,-0.0139,-0.014,-0.0148,-0.0166,-0.0146,-0.0146,-0.0178,-0.0179,-0.0181,-0.0195,0,0,0,0,0,0,-0.0106,-0.0106,-0.0107,-0.0108,-0.0109,-0.0108,-0.0117,-0.0119,-0.0124,-0.0126,-0.0134,-0.0136,-0.0139,-0.0148,-0.0148,-0.0166,-0.0146,-0.0177,-0.0179,-0.018,-0.0193,-0.0196,-0.0199,0,0,0,0,0,-0.0106,-0.0098,-0.0106,-0.0107,-0.0109,-0.0108,-0.0108,-0.0117,-0.0124,-0.0125,-0.0136,-0.0136,-0.016,-0.0149,-0.0148,-0.0166,-0.0176,-0.0178,-0.018,-0.0192,-0.0196,-0.0199,0,0,0,0,0,0,-0.0092,-0.01,-0.0109,-0.0103,-0.0109,-0.0111,-0.0109,-0.0117,-0.0126,-0.013,-0.0137,-0.0139,-0.0161,-0.0158,-0.0146,-0.0184,-0.0172,-0.0174,-0.0181,-0.0185,-0.0188,-0.0178,-0.0146,0,0,0,0,0,-0.0091,-0.0091,-0.0099,-0.0095,-0.0098,-0.0106,-0.0107,-0.0114,-0.0121,-0.0125,-0.0135,-0.0149,-0.0167,-0.0171,-0.0184,-0.019,-0.0187,-0.0207,-0.021,-0.0212,-0.0206,-0.0223,-0.0226,-0.0188,-0.0188,-0.0188,0,0,-0.0083,-0.0088,-0.0088,-0.0093,-0.0097,-0.0097,-0.0108,-0.011,-0.0114,-0.0125,-0.0136,-0.0159,-0.0173,-0.0193,-0.0202,-0.0192,-0.0222,-0.0215,-0.0217,-0.0209,-0.0225,-0.0229,-0.0232,-0.0189,-0.0189,-0.0189,0,0,-0.0064,-0.0074,-0.0068,-0.0074,-0.0083,-0.009,-0.0092,-0.0103,-0.0114,-0.0125,-0.0148,-0.0178,-0.0189,-0.0213,-0.0223,-0.0248,-0.0242,-0.0258,-0.0259,-0.0275,-0.0278,-0.0281,-0.0278,-0.028,-0.0255,-0.0255,-0.0255,0,-0.0055,-0.005,-0.0066,-0.0063,-0.0063,-0.0087,-0.008,-0.0094,-0.011,-0.0119,-0.013,-0.0178,-0.0199,-0.0228,-0.0249,-0.0254,-0.0254,-0.0242,-0.0278,-0.0281,-0.0283,-0.0279,-0.0281,-0.0256,-0.0256,-0.0255,-0.0255,0,-0.0034,-0.0032,-0.0028,-0.0036,-0.004,-0.0038,-0.0059,-0.0072,-0.0092,-0.011,-0.0147,-0.0183,-0.0207,-0.0235,-0.025,-0.0286,-0.0277,-0.0283,-0.0265,-0.0287,-0.0282,-0.0284,-0.0257,-0.0257,-0.0256,-0.0256,0,0,-0.0002,-0.0011,-0.0009,-0.0005,-0.0025,-0.0021,-0.0038,-0.0053,-0.0055,-0.0101,-0.0107,-0.0178,-0.0204,-0.0219,-0.0253,-0.0282,-0.0312,-0.0292,-0.0292,-0.0281,-0.0334,-0.0343,-0.0345,-0.0324,-0.0325,-0.0325,-0.0322,0,0.0021,0.0037,0.0022,0.0036,0.0044,0.0016,0.0012,-0.0011,-0.0038,-0.0053,-0.0115,-0.0138,-0.0194,-0.0208,-0.0251,-0.0299,-0.0319,-0.0312,-0.032,-0.0319,-0.0319,-0.0349,-0.0327,-0.0323,-0.0324,-0.0324,-0.0324,0,0.0048,0.0055,0.0073,0.008,0.0082,0.0083,0.0076,0.0068,0.0028,0.0009,-0.0039,-0.008,-0.0146,-0.0179,-0.0267,-0.0259,-0.0295,-0.0331,-0.0332,-0.0334,-0.0333,-0.0298,-0.0327,-0.0327,-0.0327,-0.0327,-0.0326,0,0.0086,0.0095,0.0113,0.0112,0.0111,0.0115,0.0112,0.0084,0.008,0.0046,0.0038,-0.0036,-0.0072,-0.014,-0.0244,-0.0246,-0.0327,-0.0329,-0.0365,-0.0365,-0.0348,-0.0346,-0.0371,-0.0371,-0.0371,-0.0371,-0.0371,0,0.0119,0.0137,0.0133,0.0145,0.0171,0.0156,0.0175,0.016,0.0142,0.013,0.0071,0.0042,-0.0067,-0.0137,-0.0216,-0.0307,-0.0303,-0.0367,-0.0371,-0.0354,-0.0353,-0.0349,-0.0347,-0.0371,-0.0371,-0.0371,-0.0371,0,0.0156,0.0154,0.0178,0.0185,0.0189,0.0206,0.0213,0.0218,0.0203,0.0187,0.0176,0.0098,0.0003,-0.0101,-0.0209,-0.0269,-0.035,-0.0376,-0.0342,-0.0344,-0.0374,-0.0372,-0.0396,-0.0396,-0.0397,-0.0397,-0.0397,0,0.0177,0.019,0.0207,0.0213,0.0215,0.0237,0.0243,0.0244,0.0237,0.0205,0.0188,0.0113,0.0045,-0.0097,-0.0212,-0.0335,-0.0361,-0.038,-0.0393,-0.0378,-0.038,-0.0377,-0.0375,-0.0398,-0.0398,-0.0398,-0.0398,0,0.0205,0.0207,0.0217,0.0223,0.0233,0.0257,0.0261,0.0273,0.0256,0.0256,0.0204,0.0126,0.0026,-0.0097,-0.0195,-0.0292,-0.0359,-0.0384,-0.0384,-0.0396,-0.0381,-0.0382,-0.0379,-0.0399,-0.0399,-0.0399,-0.0399,0,0.0211,0.0214,0.0203,0.021,0.0226,0.0233,0.0265,0.0252,0.0258,0.0232,0.0212,0.0113,0.0059,-0.0076,-0.0177,-0.0267,-0.0284,-0.0298,-0.0303,-0.0303,-0.0292,-0.0261,-0.0247,0,0,0,0,0,0.0189,0.0165,0.0179,0.0177,0.02,0.0207,0.0235,0.0261,0.0269,0.024,0.0231,0.0138,-0.0001,-0.0063,-0.0152,-0.02,-0.0315,-0.0307,-0.0336,-0.0407,-0.0405,-0.0413,0,0,0,0,0,0,0.0159,0.0151,0.0156,0.0136,0.014,0.0158,0.0185,0.0209,0.02,0.0206,0.0137,0.0119,-0.0018,0.0044,-0.0156,-0.0184,-0.0212,-0.0368,-0.037,-0.0408,-0.0406,-0.0405,-0.0412,0,0,0,0,0]}]]